Regional Weather Roundup
Issued by NWS

Home | Current Version | Previous Version | Text Only | Print | Product List | Glossary Off
Versions: 1 2 3 4 5 6 7 8 9 10 11 12 13 14 15 16 17 18 19 20 21 22 23 24 25 26 27 28 29 30 31 32 33 34 35 36 37 38 39 40 41 42 43 44 45 46 47 48 49 50

000
ASUS45 KSLC 271910
RWRUT

UTAH REGIONAL WEATHER ROUNDUP
NATIONAL WEATHER SERVICE SALT LAKE CITY UT
1200 PM MST SAT DEC 27 2014

UTZ001>011-023>025-272000-

NORTHERN UTAH

CITY           SKY/WX    TMP DP  RH WIND       PRES   REMARKS
BRIGHAM CITY   MOSUNNY   23  16  74 CALM      30.35F
HILL AFB       PTSUNNY   23  14  68 SE5       30.32F WCI  17
LOGAN          SUNNY     14   8  77 CALM      30.34F
OGDEN          CLOUDY    24  15  68 S9        30.33F WCI  14
PROVO AIRPORT  MOSUNNY   21  12  68 SE5       30.37F WCI  15
SALT LAKE CITY MOSUNNY   27  16  63 SE10      30.35F WCI  17
VERNAL         SUNNY     19  12  74 E3        30.30F
WENDOVER       MOSUNNY   28  12  50 SE5       30.34F WCI  23
HEBER CITY     SUNNY     18  12  79 CALM      30.31F
WEST JORDAN    SUNNY     25  19  80 S9        30.35F WCI  15

$$

UTZ012>022-026-027-272000-

SOUTHERN/CENTRAL UTAH

CITY           SKY/WX    TMP DP  RH WIND       PRES   REMARKS
BLANDING       SUNNY     28  10  46 SW5       30.32F WCI  22
BRYCE CANYON   SUNNY     18   2  49 NE8       30.23F WCI   8
CEDAR CITY     SUNNY     18   9  68 SW3       30.32F
DELTA          SUNNY     22  14  71 E3        30.36F
MILFORD        SUNNY     10   4  76 S7        30.35F WCI  -1
MOAB/CYNLANDS  SUNNY     20  13  74 NW6       30.32F WCI  12
PRICE          SUNNY     25   6  44 S9        30.24F WCI  15
ST GEORGE      CLEAR     37  10  32 NW3       30.42F
KANAB          SUNNY     32   5  32 E6        30.35F WCI  26

$$

REGIONAL REPORTS     COLORADO/ARIZONA

CITY           SKY/WX    TMP DP  RH WIND       PRES   REMARKS
CRAIG, CO      SUNNY     12   8  84 CALM      30.25F
GRAND JUNCTION SUNNY     24  13  62 CALM      30.32F
RIFLE          SUNNY     20   7  57 CALM      30.29F
MONTROSE       SUNNY     23   9  55 CALM      30.29F
CORTEZ         SUNNY     27  10  49 VRB3      30.23F
PAGE, AZ       SUNNY     35   7  31 CALM      30.34F
GRAND CANYON   SUNNY     29   9  43 NE9       30.26F WCI  20
KINGMAN        SUNNY     41   9  26 N12       30.33F
FLAGSTAFF      SUNNY     25  11  55 NE16G24   30.21F WCI  12

$$

REGIONAL REPORTS    NEVADA/IDAHO/WYOMING

CITY           SKY/WX    TMP DP  RH WIND       PRES   REMARKS
LAS VEGAS, NV  MOSUNNY   46   8  21 N13G21    30.38F
ELY            SUNNY     21  10  62 SE3       30.29F
ELKO           SUNNY     24  13  62 W5        30.31F WCI  18
POCATELLO, ID  CLOUDY    26  18  71 SW10      30.28F WCI  16
BURLEY         CLOUDY    27  16  63 SW12      30.27F WCI  17
EVANSTON, WY   SUNNY     14   9  80 SW13      30.18F WCI   0
ROCK SPRINGS   MOSUNNY   13   5  70 SW23      30.14F WCI  -6

$$


USA.gov is the U.S. government's official web portal to all federal, state and local government web resources and services.